GW3516 Weather Reports


Display with metric or nautical units.
time (UTC)temp
F
wind
direction
speed
MPH
gust
MPH
rain 1hr
in
rain 24hr
in
rain mn
in
humidity
%
barometer
mb
20260906231017 82 203 5.0 11.0 0.00 0.00 0.00 6 1017.7
20260906230037 83 270 11.0 15.0 0.00 0.00 0.00 7 1017.9
20260906225037 84 180 9.0 14.0 0.00 0.00 0.00 4 1018.2
20260906224038 84 158 5.0 11.0 0.00 0.00 0.00 7 1017.9
20260906223058 83 270 13.0 20.0 0.00 0.00 0.00 7 1017.9
20260906222056 83 270 12.0 18.0 0.00 0.00 0.00 6 1018.2
20260906221017 83 248 8.0 13.0 0.00 0.00 0.00 7 1018.4
20260906220017 83 225 11.0 21.0 0.00 0.00 0.00 7 1018.7
20260906215017 83 293 11.0 18.0 0.00 0.00 0.00 8 1018.6
20260906214037 83 248 10.0 15.0 0.00 0.00 0.00 8 1018.9
20260906213037 83 225 12.0 20.0 0.00 0.00 0.00 8 1018.9
20260906212137 83 248 13.0 19.0 0.00 0.00 0.00 9 1019.2
20260906211017 83 248 15.0 23.0 0.00 0.00 0.00 8 1018.9
20260906210057 83 225 11.0 17.0 0.00 0.00 0.00 8 1018.4
20260906205017 83 248 10.0 20.0 0.00 0.00 0.00 8 1018.5
20260906204137 84 248 8.0 20.0 0.00 0.00 0.00 8 1018.7
20260906203017 83 203 7.0 13.0 0.00 0.00 0.00 8 1018.5
20260906202017 82 293 12.0 24.0 0.00 0.00 0.00 9 1018.8
20260906201037 82 248 11.0 22.0 0.00 0.00 0.00 8 1018.7
20260906200017 82 270 10.0 16.0 0.00 0.00 0.00 8 1018.8
20260906195017 82 270 14.0 21.0 0.00 0.00 0.00 9 1019.0
20260906194137 83 248 12.0 22.0 0.00 0.00 0.00 8 1019.5
20260906193037 83 248 13.0 20.0 0.00 0.00 0.00 6 1019.4
20260906192017 83 225 12.0 23.0 0.00 0.00 0.00 5 1019.6
20260906191036 83 225 13.0 21.0 0.00 0.00 0.00 6 1020.1
20260906190057 83 225 11.0 19.0 0.00 0.00 0.00 7 1020.2
20260906185057 81 225 9.0 13.0 0.00 0.00 0.00 8 1020.2
20260906184017 81 203 9.0 15.0 0.00 0.00 0.00 7 1020.2
20260906183017 82 225 10.0 15.0 0.00 0.00 0.00 8 1020.4
20260906182037 82 180 10.0 18.0 0.00 0.00 0.00 5 1020.4
20260906181017 81 270 8.0 16.0 0.00 0.00 0.00 9 1020.8
20260906180037 81 248 10.0 17.0 0.00 0.00 0.00 9 1021.1
20260906175057 80 203 8.0 14.0 0.00 0.00 0.00 9 1021.3
20260906174057 80 225 7.0 13.0 0.00 0.00 0.00 9 1021.0
20260906173017 80 203 8.0 11.0 0.00 0.00 0.00 11 1020.8
20260906172017 79 203 5.0 11.0 0.00 0.00 0.00 13 1020.8
20260906171037 78 135 3.0 9.0 0.00 0.00 0.00 12 1021.0
20260906170037 77 135 3.0 8.0 0.00 0.00 0.00 13 1021.0
20260906165117 76 158 4.0 9.0 0.00 0.00 0.00 14 1021.2
20260906164017 74 68 1.0 4.0 0.00 0.00 0.00 16 1021.0
20260906163017 73 90 2.0 6.0 0.00 0.00 0.00 18 1021.3
20260906162037 72 90 3.0 6.0 0.00 0.00 0.00 18 1020.9
20260906161037 70 90 5.0 7.0 0.00 0.00 0.00 25 1020.9
20260906160057 68 90 4.0 7.0 0.00 0.00 0.00 28 1021.1
20260906155057 66 113 3.0 7.0 0.00 0.00 0.00 31 1020.7
20260906154017 64 113 2.0 4.0 0.00 0.00 0.00 33 1020.5
20260906153017 62 113 3.0 5.0 0.00 0.00 0.00 37 1020.8
20260906152037 60 0.0 0.0 0.00 0.00 0.00 40 1020.4
20260906151017 58 113 1.0 3.0 0.00 0.00 0.00 42 1020.3
20260906150117 56 113 2.0 4.0 0.00 0.00 0.00 45 1020.0
20260906145017 54 0.0 0.0 0.00 0.00 0.00 50 1019.7
20260906144037 52 113 1.0 3.0 0.00 0.00 0.00 51 1020.2
20260906143036 50 0.0 0.0 0.00 0.00 0.00 55 1020.2
20260906142016 49 113 1.0 3.0 0.00 0.00 0.00 56 1020.6
20260906141036 47 113 1.0 2.0 0.00 0.00 0.00 59 1020.4
20260906140017 46 113 2.0 5.0 0.00 0.00 0.00 62 1020.9
20260906135017 44 135 2.0 4.0 0.00 0.00 0.00 64 1021.0
20260906134057 42 135 2.0 3.0 0.00 0.00 0.00 64 1020.8
20260906133057 41 0.0 0.0 0.00 0.00 0.00 63 1020.6
20260906132017 41 0.0 1.0 0.00 0.00 0.00 62 1020.4
20260906131057 41 0.0 0.0 0.00 0.00 0.00 61 1020.2
20260906130057 41 0.0 0.0 0.00 0.00 0.00 60 1020.7
20260906125016 42 0.0 0.0 0.00 0.00 0.00 60 1020.6
20260906124016 42 0.0 0.0 0.00 0.00 0.00 59 1020.4
20260906123017 42 0.0 0.0 0.00 0.00 0.00 59 1020.8
20260906122036 43 158 3.0 5.0 0.00 0.00 0.00 58 1020.6
20260906121118 44 225 1.0 4.0 0.00 0.00 0.00 56 1021.0
20260906120138 45 0.0 0.0 0.00 0.00 0.00 55 1021.5
20260906115018 46 0.0 0.0 0.00 0.00 0.00 53 1021.5
20260906114018 47 225 1.0 3.0 0.00 0.00 0.00 51 1021.8
20260906113018 49 0.0 2.0 0.00 0.00 0.00 47 1021.8
20260906112018 50 225 1.0 3.0 0.00 0.00 0.00 48 1021.9
20260906111018 50 225 1.0 3.0 0.00 0.00 0.00 48 1021.8
20260906110038 51 90 2.0 8.0 0.00 0.00 0.00 48 1021.9
20260906105016 50 113 6.0 14.0 0.00 0.00 0.00 48 1021.2
20260906104018 50 45 5.0 8.0 0.00 0.00 0.00 48 1021.2
20260906103016 51 45 4.0 10.0 0.00 0.00 0.00 46 1021.0
20260906102018 51 113 5.0 11.0 0.00 0.00 0.00 48 1021.1
20260906101136 52 135 6.0 12.0 0.00 0.00 0.00 46 1021.0
20260906100118 53 90 5.0 10.0 0.00 0.00 0.00 45 1021.0
20260906095016 52 113 6.0 13.0 0.00 0.00 0.00 45 1020.9
20260906094018 51 90 6.0 10.0 0.00 0.00 0.00 47 1020.4
20260906093018 51 90 4.0 8.0 0.00 0.00 0.00 50 1020.5
20260906092116 51 90 6.0 9.0 0.00 0.00 0.00 49 1020.5
20260906091038 50 90 7.0 10.0 0.00 0.00 0.00 51 1020.5
20260906090018 49 90 7.0 13.0 0.00 0.00 0.00 55 1020.1
20260906085016 48 135 6.0 8.0 0.00 0.00 0.00 55 1020.2
20260906084058 48 68 2.0 5.0 0.00 0.00 0.00 55 1019.7
20260906083016 48 90 8.0 10.0 0.00 0.00 0.00 55 1019.7
20260906082018 48 90 3.0 8.0 0.00 0.00 0.00 55 1019.8
20260906081156 49 90 3.0 7.0 0.00 0.00 0.00 54 1020.0
20260906080016 49 90 2.0 4.0 0.00 0.00 0.00 54 1020.1
20260906075018 50 90 3.0 6.0 0.00 0.00 0.00 53 1019.9
20260906074018 50 90 4.0 9.0 0.00 0.00 0.00 54 1020.4
20260906073118 50 68 4.0 8.0 0.00 0.00 0.00 54 1020.1
20260906072018 50 68 1.0 4.0 0.00 0.00 0.00 53 1020.3
20260906071018 51 90 4.0 7.0 0.00 0.00 0.00 52 1020.4
20260906070158 52 90 5.0 8.0 0.00 0.00 0.00 51 1020.8
20260906065018 52 90 7.0 11.0 0.00 0.00 0.00 52 1020.6
20260906064016 52 90 6.0 12.0 0.00 0.00 0.00 52 1020.6
20260906063016 51 90 5.0 8.0 0.00 0.00 0.00 53 1020.4
20260906062018 51 68 3.0 7.0 0.00 0.00 0.00 53 1020.3
20260906061038 51 90 4.0 8.0 0.00 0.00 0.00 53 1020.6
20260906060018 51 0.0 2.0 0.00 0.00 0.00 52 1020.2
20260906055018 52 0.0 2.0 0.00 0.00 0.00 52 1020.4
20260906054018 51 45 6.0 8.0 0.00 0.00 0.00 54 1020.4
20260906053018 50 113 4.0 9.0 0.00 0.00 0.00 54 1020.0
20260906052017 50 225 1.0 4.0 0.00 0.00 0.00 52 1019.2
20260906051015 51 0.0 0.0 0.00 0.00 0.00 50 1019.4
20260906050036 51 0.0 0.0 0.00 0.00 0.00 50 1019.5
20260906045018 52 0.0 0.0 0.00 0.00 0.00 49 1019.6
20260906044036 52 0.0 0.0 0.00 0.00 0.00 48 1019.3
20260906043038 53 0.0 2.0 0.00 0.00 0.00 47 1019.3
20260906042016 53 0.0 0.0 0.00 0.00 0.00 47 1019.4
20260906041018 54 0.0 0.0 0.00 0.00 0.00 47 1019.1
20260906040056 54 0.0 0.0 0.00 0.00 0.00 46 1019.0
20260906035138 55 0.0 0.0 0.00 0.00 0.00 45 1019.0
20260906034016 55 0.0 0.0 0.00 0.00 0.00 44 1018.5
20260906033018 56 0.0 0.0 0.00 0.00 0.00 43 1018.4
20260906032117 56 225 1.0 2.0 0.00 0.00 0.00 43 1018.5
20260906031017 58 0.0 0.0 0.00 0.00 0.00 40 1018.3
20260906030018 59 0.0 0.0 0.00 0.00 0.00 38 1018.2
20260906025018 60 225 1.0 3.0 0.00 0.00 0.00 37 1018.2
20260906024017 62 225 1.0 2.0 0.00 0.00 0.00 35 1018.0
20260906023037 65 225 1.0 3.0 0.00 0.00 0.00 32 1018.3
20260906022035 68 0.0 0.0 0.00 0.00 0.00 27 1018.5
20260906021017 70 0.0 0.0 0.00 0.00 0.00 26 1018.6
20260906020138 73 0.0 1.0 0.00 0.00 0.00 21 1018.8
20260906015017 75 0.0 0.0 0.00 0.00 0.00 17 1018.8
20260906014118 76 0.0 0.0 0.00 0.00 0.00 16 1018.8
20260906013017 77 225 3.0 4.0 0.00 0.00 0.00 16 1018.8
20260906012017 78 248 2.0 5.0 0.00 0.00 0.00 16 1018.8
20260906011057 78 225 3.0 4.0 0.00 0.00 0.00 15 1018.6
20260906010057 79 248 3.0 6.0 0.00 0.00 0.00 14 1019.0
20260906005017 79 225 4.0 6.0 0.00 0.00 0.00 14 1019.0
20260906004017 79 225 4.0 8.0 0.00 0.00 0.00 14 1018.8
20260906003037 80 225 6.0 9.0 0.00 0.00 0.00 13 1019.1
20260906002057 80 248 5.0 8.0 0.00 0.00 0.00 13 1019.4
20260906001017 81 248 7.0 11.0 0.00 0.00 0.00 12 1019.7
20260906000037 81 203 2.0 5.0 0.00 0.00 0.00 13 1019.9
20260905235017 81 248 4.0 10.0 0.00 0.00 0.00 12 1019.9
20260905234017 81 225 7.0 11.0 0.00 0.00 0.00 12 1019.9
20260905233057 81 248 5.0 9.0 0.00 0.00 0.00 13 1020.4
20260905232017 81 225 8.0 12.0 0.00 0.00 0.00 12 1020.4